Find Kosmos-1883

NORAD ID: 18355 Int'l Des: 1987-079 Owner: UNKS Country: SU Constellation: GLONASS operational
MEOCIRCULAR

Live Position

Loading 3D Globe...

About Kosmos-1883

Description loading...

Upcoming Passes

Passes for default location (London). Set your location on the main map for personalized predictions.

Altitude History

Loading altitude history...

Two-Line Element Set

1 18355U 87079A 26102.00860360 -.00000011 00000-0 00000+0 0 9999
2 18355 65.6360 320.9647 0007878 257.4681 282.4442 2.13101080300122
Epoch: Apr 12, 2026 • Age: 76 hours

Current Status

Altitude 19160.2 km
Velocity 3.95 km/s
Sub-Earth Point 62.65°N, 121.13°E
Launch Date Sep 16, 1987
Age 38.5 years
Type other

Technical Details

Classification Payload
Mass 1300.00 kg
Dry Mass 1200.00 kg
Total Mass 1300.00 kg
Length 4.00 m
Diameter 1.50 m
Span 7.80 m
Shape Cyl + Ant + 2 Pan
Manufacturer OAZ
Bus Type Uragan
Phase Status In Orbit
Owner/State UNKS/SU

Most Searched